• En España
  • Lista de países
  • Para 7 días
  • Temperatura del agua
  • Mapa Satelital
  • El tiempo en el mapa
  • Informadores
  • user-avatar
    Iniciar sesión

    Tiempo cada hora Orsha

    Hoy, 17 Octubre, Miércoles

    Tiempo Temperatura Precipitaciones Viento Presión Humedad
    00:00 +10°C° 0 mm 2 mps 752 mmHg 86%
    01:00 +10°C° 0 mm 2 mps 752 mmHg 86%
    02:00 +10°C° 0 mm 2 mps 752 mmHg 87%
    03:00 +10°C° 0 mm 2 mps 752 mmHg 87%
    04:00 +9°C° 0 mm 2 mps 752 mmHg 88%
    05:00 +9°C° 0 mm 2 mps 752 mmHg 88%
    06:00 +10°C° 0 mm 2 mps 752 mmHg 87%
    07:00 +10°C° 0 mm 2 mps 752 mmHg 86%
    08:00 +10°C° 0 mm 2 mps 752 mmHg 85%
    09:00 +13°C° 0 mm 2 mps 752 mmHg 78%
    10:00 +15°C° 0 mm 2 mps 752 mmHg 71%
    11:00 +17°C° 0 mm 3 mps 752 mmHg 65%
    12:00 +17°C° 0 mm 2 mps 752 mmHg 62%
    13:00 +18°C° 0 mm 2 mps 752 mmHg 60%
    14:00 +19°C° 0 mm 2 mps 752 mmHg 57%
    15:00 +18°C° 0 mm 2 mps 752 mmHg 63%
    16:00 +16°C° 0 mm 2 mps 752 mmHg 68%
    17:00 +15°C° 0 mm 1 mps 752 mmHg 74%
    18:00 +14°C° 0 mm 1 mps 752 mmHg 76%
    19:00 +14°C° 0 mm 1 mps 752 mmHg 78%
    20:00 +13°C° 0 mm 1 mps 752 mmHg 81%
    21:00 +13°C° 0 mm 2 mps 752 mmHg 82%
    22:00 +12°C° 0 mm 2 mps 752 mmHg 84%
    23:00 +12°C° 0 mm 2 mps 752 mmHg 86%

    Mañana, 18 Octubre, Jueves

    Tiempo Temperatura Precipitaciones Viento Presión Humedad
    00:00 +12°C° 0 mm 2 mps 752 mmHg 87%
    01:00 +12°C° 0 mm 2 mps 752 mmHg 88%
    02:00 +12°C° 0 mm 2 mps 751 mmHg 88%
    03:00 +10°C° 0 mm 2 mps 751 mmHg 89%
    04:00 +10°C° 0 mm 2 mps 751 mmHg 90%
    05:00 +10°C° 0 mm 2 mps 751 mmHg 90%
    06:00 +10°C° 0 mm 2 mps 751 mmHg 90%
    07:00 +12°C° 0 mm 2 mps 751 mmHg 89%
    08:00 +12°C° 0 mm 2 mps 751 mmHg 88%
    09:00 +14°C° 0 mm 2 mps 751 mmHg 82%
    10:00 +16°C° 0 mm 2 mps 750 mmHg 76%
    11:00 +17°C° 0 mm 2 mps 750 mmHg 70%
    12:00 +18°C° 0 mm 3 mps 750 mmHg 67%
    13:00 +19°C° 0 mm 3 mps 750 mmHg 65%
    14:00 +19°C° 0 mm 3 mps 749 mmHg 63%
    15:00 +18°C° 0 mm 3 mps 749 mmHg 68%
    16:00 +17°C° 0 mm 2 mps 748 mmHg 74%
    17:00 +15°C° 0 mm 2 mps 748 mmHg 79%
    18:00 +15°C° 0 mm 2 mps 748 mmHg 81%
    19:00 +14°C° 0 mm 2 mps 748 mmHg 83%
    20:00 +14°C° 0 mm 2 mps 748 mmHg 85%
    21:00 +13°C° 0 mm 2 mps 748 mmHg 86%
    22:00 +13°C° 0 mm 2 mps 748 mmHg 88%
    23:00 +12°C° 0 mm 2 mps 748 mmHg 89%

    Pasado mañana, 19 Octubre, Viernes

    Tiempo Temperatura Precipitaciones Viento Presión Humedad
    00:00 +12°C° 0 mm 2 mps 747 mmHg 89%
    01:00 +12°C° 0 mm 2 mps 747 mmHg 89%
    02:00 +10°C° 0 mm 2 mps 747 mmHg 89%
    03:00 +10°C° 0 mm 2 mps 747 mmHg 90%
    04:00 +11°C° 0 mm 1 mps 747 mmHg 90%
    05:00 +10°C° 0 mm 1 mps 747 mmHg 90%
    06:00 +11°C° 0 mm 1 mps 747 mmHg 89%
    07:00 +11°C° 0 mm 1 mps 747 mmHg 88%
    08:00 +11°C° 0 mm 1 mps 747 mmHg 88%
    09:00 +12°C° 0 mm 1 mps 747 mmHg 82%
    10:00 +14°C° 0 mm 2 mps 747 mmHg 77%
    11:00 +15°C° 0 mm 2 mps 747 mmHg 72%
    12:00 +16°C° 0 mm 2 mps 747 mmHg 70%
    13:00 +16°C° 0 mm 2 mps 747 mmHg 69%
    14:00 +16°C° 0 mm 2 mps 747 mmHg 68%
    15:00 +15°C° 0 mm 2 mps 747 mmHg 73%
    16:00 +14°C° 0 mm 2 mps 747 mmHg 79%
    17:00 +12°C° 0 mm 3 mps 747 mmHg 85%
    18:00 +11°C° 0 mm 3 mps 748 mmHg 85%
    19:00 +11°C° 0 mm 3 mps 748 mmHg 86%
    20:00 +10°C° 0 mm 3 mps 749 mmHg 87%
    21:00 +10°C° 0 mm 3 mps 749 mmHg 87%
    22:00 +9°C° 0 mm 3 mps 749 mmHg 87%
    23:00 +8°C° 0 mm 3 mps 749 mmHg 87%

    20 Octubre, Sábado

    Tiempo Temperatura Precipitaciones Viento Presión Humedad
    00:00 +7°C° 0 mm 3 mps 749 mmHg 87%
    01:00 +7°C° 0 mm 3 mps 750 mmHg 87%
    02:00 +5°C° 0 mm 3 mps 750 mmHg 86%
    03:00 +5°C° 0 mm 2 mps 750 mmHg 87%
    04:00 +5°C° 0 mm 2 mps 750 mmHg 88%
    05:00 +4°C° 0 mm 2 mps 750 mmHg 89%
    06:00 +4°C° 0 mm 2 mps 750 mmHg 88%
    07:00 +5°C° 0 mm 2 mps 751 mmHg 87%
    08:00 +5°C° 0 mm 2 mps 751 mmHg 86%
    09:00 +6°C° 0 mm 2 mps 751 mmHg 79%
    10:00 +8°C° 0 mm 2 mps 751 mmHg 72%
    11:00 +9°C° 0 mm 2 mps 751 mmHg 66%
    12:00 +9°C° 0 mm 2 mps 751 mmHg 63%
    13:00 +10°C° 0 mm 2 mps 751 mmHg 60%
    14:00 +10°C° 0 mm 2 mps 751 mmHg 57%
    15:00 +9°C° 0 mm 2 mps 751 mmHg 63%
    16:00 +8°C° 0 mm 2 mps 751 mmHg 68%
    17:00 +8°C° 0 mm 1 mps 751 mmHg 73%
    18:00 +7°C° 0 mm 1 mps 751 mmHg 76%
    19:00 +7°C° 0 mm 1 mps 751 mmHg 79%
    20:00 +6°C° 0 mm 1 mps 751 mmHg 81%
    21:00 +6°C° 0 mm 1 mps 751 mmHg 83%
    22:00 +5°C° 0 mm 1 mps 751 mmHg 85%
    23:00 +5°C° 0 mm 1 mps 751 mmHg 87%

    21 Octubre, Domingo

    Tiempo Temperatura Precipitaciones Viento Presión Humedad
    00:00 +5°C° 0 mm 1 mps 751 mmHg 88%
    01:00 +4°C° 0 mm 1 mps 751 mmHg 89%
    02:00 +4°C° 0 mm 1 mps 751 mmHg 91%
    03:00 +4°C° 0 mm 1 mps 751 mmHg 91%
    04:00 +4°C° 0 mm 1 mps 751 mmHg 92%
    05:00 +2°C° 0 mm 2 mps 751 mmHg 93%
    06:00 +3°C° 0 mm 2 mps 751 mmHg 92%
    07:00 +3°C° 0 mm 2 mps 752 mmHg 91%
    08:00 +3°C° 0 mm 2 mps 752 mmHg 90%
    09:00 +4°C° 0 mm 2 mps 752 mmHg 84%
    10:00 +6°C° 0 mm 2 mps 752 mmHg 78%
    11:00 +7°C° 0 mm 2 mps 752 mmHg 72%
    12:00 +8°C° 0 mm 2 mps 752 mmHg 69%
    13:00 +8°C° 0 mm 2 mps 752 mmHg 66%
    14:00 +9°C° 0 mm 2 mps 752 mmHg 63%
    15:00 +8°C° 0 mm 2 mps 752 mmHg 68%
    16:00 +8°C° 0 mm 1 mps 752 mmHg 74%
    17:00 +6°C° 0 mm 1 mps 752 mmHg 79%
    18:00 +6°C° 0 mm 1 mps 752 mmHg 81%
    19:00 +5°C° 0 mm 1 mps 752 mmHg 84%
    20:00 +5°C° 0 mm 1 mps 753 mmHg 86%
    21:00 +5°C° 0 mm 1 mps 753 mmHg 87%
    22:00 +3°C° 0 mm 0 mps 753 mmHg 88%
    23:00 +3°C° 0 mm 0 mps 753 mmHg 88%

    22 Octubre, Lunes

    Tiempo Temperatura Precipitaciones Viento Presión Humedad
    00:00 +3°C° 0 mm 0 mps 752 mmHg 89%
    01:00 +4°C° 0 mm 1 mps 752 mmHg 89%
    02:00 +3°C° 0 mm 1 mps 752 mmHg 90%
    03:00 +3°C° 0 mm 1 mps 752 mmHg 90%
    04:00 +3°C° 0 mm 1 mps 752 mmHg 91%
    05:00 +3°C° 0 mm 1 mps 752 mmHg 91%
    06:00 +3°C° 0 mm 1 mps 752 mmHg 90%
    07:00 +2°C° 0 mm 2 mps 751 mmHg 89%
    08:00 +3°C° 0 mm 2 mps 751 mmHg 88%
    09:00 +4°C° 0 mm 2 mps 751 mmHg 81%
    10:00 +5°C° 0 mm 3 mps 751 mmHg 74%
    11:00 +7°C° 0 mm 3 mps 751 mmHg 67%
    12:00 +8°C° 0 mm 3 mps 750 mmHg 64%
    13:00 +8°C° 0 mm 4 mps 750 mmHg 61%
    14:00 +8°C° 0 mm 4 mps 749 mmHg 58%
    15:00 +7°C° 0 mm 4 mps 749 mmHg 63%
    16:00 +7°C° 0 mm 3 mps 748 mmHg 68%
    17:00 +5°C° 0 mm 3 mps 748 mmHg 73%
    18:00 +5°C° 0 mm 3 mps 748 mmHg 76%
    19:00 +4°C° 0 mm 3 mps 748 mmHg 79%
    20:00 +4°C° 0 mm 3 mps 748 mmHg 82%
    21:00 +4°C° 0.1 mm 3 mps 748 mmHg 84%
    22:00 +5°C° 0.1 mm 3 mps 748 mmHg 86%
    23:00 +5°C° 0.1 mm 3 mps 748 mmHg 88%
    Mostrar más